Theta_e
330 328 327 327 327 327 328 328 327 326 323 321 320 318 318 318 318 317 317 315 314 312 311 309 308 307 305 303 303 304 305 305 305 305 305 305 305 306 306 306 306 305
330 328 326 326 326 327 327 327 325 324 321 320 319 317 316 316 317 316 315 313 311 310 309 308 307 306 305 304 304 305 305 305 305 305 305 305 305 305 306 305 305 304
328 327 326 326 326 326 326 325 324 322 320 319 317 315 315 315 314 314 312 311 310 309 308 307 307 305 305 304 305 305 305 305 305 305 305 305 304 305 305 305 304 304
327 326 325 325 325 326 325 323 321 320 318 317 316 314 314 314 314 313 312 311 310 309 308 307 306 305 304 305 305 305 305 304 304 304 305 304 304 304 304 304 304 304
326 325 324 323 324 324 323 320 319 318 317 316 314 314 314 314 314 313 312 311 310 308 307 306 305 304 304 304 304 304 304 304 304 304 304 304 304 304 304 304 304 304
325 324 322 322 323 323 321 319 319 318 316 315 314 315 315 314 313 312 311 310 309 308 306 305 304 304 304 304 304 304 304 304 304 304 303 304 303 303 303 303 303 303
324 322 322 322 322 321 320 319 318 317 315 314 314 315 314 313 313 312 310 309 308 307 306 305 304 304 304 304 304 304 304 304 303 303 303 303 303 303 302 302 302 302
323 321 321 321 321 320 319 318 317 315 314 313 314 314 313 312 312 311 309 309 307 306 305 304 303 303 303 303 304 303 304 303 303 302 302 302 302 302 302 302 302 302
321 320 320 320 320 319 318 317 316 314 313 313 314 313 312 312 311 310 309 308 307 306 304 303 303 303 303 303 303 303 303 303 303 303 302 302 302 302 302 302 302 302
320 321 320 319 318 318 317 316 314 313 312 312 313 312 312 311 311 310 309 308 306 305 303 303 303 302 302 302 302 303 303 303 302 302 302 302 302 302 302 302 302 302
319 319 319 318 317 317 316 314 313 313 311 312 312 312 311 311 310 309 308 307 306 304 303 303 302 302 302 302 302 302 302 302 302 302 302 302 302 302 302 302 302 302
318 317 318 318 317 316 315 313 313 312 311 311 312 311 310 310 309 308 308 307 305 304 303 302 302 302 302 302 302 302 302 302 302 302 302 302 302 302 302 302 302 302
316 316 317 317 316 315 314 312 311 311 311 311 311 310 309 309 308 308 307 306 305 304 303 302 301 302 302 301 302 302 302 302 302 302 302 302 302 301 301 302 302 302
315 315 317 317 315 314 312 311 310 310 310 311 310 309 309 308 308 308 307 306 305 304 303 302 302 302 301 302 302 302 302 302 302 302 302 302 301 301 301 302 302 301
315 315 315 315 314 312 311 310 309 309 310 310 309 309 308 308 308 307 306 306 305 304 303 302 302 302 302 301 302 302 302 302 302 302 302 301 301 301 301 301 301 300
315 314 314 313 312 311 310 309 309 310 310 309 309 309 308 308 308 307 306 306 305 304 303 303 302 302 301 301 302 302 302 302 302 301 301 301 301 301 301 301 301 300
313 312 312 312 312 310 309 308 309 310 309 309 309 308 308 308 307 306 306 306 305 305 304 303 303 302 300 300 301 301 302 302 302 301 301 301 301 302 301 301 301 300
312 312 311 310 310 309 308 309 309 309 308 308 308 308 308 308 307 307 306 306 305 305 304 304 303 300 298 298 299 301 302 302 302 302 302 301 301 301 301 301 301 300
312 312 310 309 309 308 308 308 308 308 308 307 307 307 307 307 307 306 306 306 306 305 304 304 302 298 297 297 298 299 301 302 302 302 302 302 301 301 301 301 301 300
313 311 310 309 309 308 308 308 307 307 307 306 307 307 307 307 307 307 307 306 306 305 304 303 301 298 297 298 298 298 300 301 302 303 302 302 301 301 301 301 300 301
312 311 310 309 308 308 308 307 306 306 306 306 306 306 307 307 306 306 305 305 305 304 303 304 301 298 298 299 298 298 299 301 303 303 302 302 301 301 301 300 300 300
312 311 310 309 308 307 307 306 306 305 305 304 304 304 305 305 304 303 303 303 303 303 303 304 302 298 298 299 298 298 298 300 303 302 302 302 301 300 300 300 300 301
311 310 308 308 307 307 306 305 304 302 300 299 300 302 303 303 303 303 302 302 303 303 304 305 302 298 298 299 298 298 298 300 303 303 302 302 301 300 300 299 299 299
309 307 307 307 306 306 305 304 302 299 297 298 301 302 303 303 303 303 303 303 304 304 304 305 302 299 298 299 299 299 299 301 303 302 302 302 301 300 300 299 296 294
307 307 306 305 305 305 304 301 299 298 297 299 301 301 302 303 303 303 303 303 304 304 304 305 303 300 298 299 299 299 299 301 303 303 302 302 301 300 300 299 296 294
307 306 305 304 304 303 302 300 300 299 299 299 300 300 301 302 302 303 304 304 304 305 304 304 304 302 299 299 300 299 299 301 303 303 302 302 301 300 300 300 299 297
Wind_Speed
15 15 17 17 20 26 27 24 23 21 19 17 15 13 12 11 11 11 11 11 12 12 12 13 13 13 13 13 15 15 14 13 13 13 13 13 13 13 13 12 11 11
16 15 18 20 24 28 26 24 23 20 18 16 14 14 14 13 12 12 12 12 13 13 13 13 13 12 13 13 14 13 13 13 13 13 13 13 12 12 12 12 11 11
16 17 20 25 29 29 26 24 21 19 18 16 14 14 15 15 14 14 13 13 14 13 13 13 12 12 13 13 13 12 13 12 12 11 12 11 11 11 11 11 11 10
18 17 20 26 30 28 26 23 21 19 18 15 15 15 15 15 15 14 14 14 14 13 13 12 12 12 12 12 12 12 12 12 11 11 11 11 11 11 11 10 10 10
19 17 18 25 29 27 25 24 22 20 18 16 15 15 15 16 15 14 14 14 13 13 13 12 12 12 12 12 12 12 12 11 11 10 11 11 10 10 10 10 10 9
18 17 20 27 29 27 26 24 22 20 18 17 16 14 15 16 15 14 14 14 14 13 12 12 12 12 12 12 12 11 11 11 11 10 11 11 10 10 9 10 10 10
17 19 25 29 28 26 25 24 22 20 18 17 15 14 15 15 15 15 14 14 14 13 12 12 12 12 12 11 11 11 11 11 10 10 10 10 10 10 9 9 10 10
19 23 28 28 28 27 26 25 23 21 19 17 14 14 15 15 15 15 15 14 14 13 12 12 12 12 12 11 12 12 11 10 10 10 11 11 10 10 10 9 9 9
22 26 28 28 28 27 26 25 23 21 20 17 14 14 15 15 15 16 15 14 14 13 13 13 13 12 12 12 12 12 11 10 10 10 10 10 10 10 9 9 8 8
24 28 29 28 29 27 26 26 24 22 20 16 14 15 15 15 15 15 15 14 14 14 14 13 13 13 12 12 12 12 11 11 11 10 10 10 10 9 9 8 8 8
26 29 29 29 29 28 27 27 24 22 20 15 14 15 15 16 16 15 15 14 14 14 14 14 14 13 13 13 12 11 11 11 11 10 10 9 9 9 8 8 8 8
28 29 30 30 29 29 28 27 24 22 19 14 14 16 16 16 16 15 15 14 14 14 14 14 14 14 13 13 12 12 11 11 11 10 10 9 8 8 8 8 8 8
30 31 32 31 29 29 28 26 25 22 17 13 14 16 16 16 16 15 14 14 14 14 14 15 14 14 13 13 12 12 11 11 11 10 9 8 8 8 8 7 8 8
31 32 33 31 30 29 28 27 25 20 15 13 15 16 16 16 16 16 15 14 14 14 15 15 15 14 14 13 12 12 12 11 11 10 9 8 7 7 7 7 8 8
32 32 32 31 31 30 28 26 23 17 14 14 15 15 16 16 16 16 16 15 15 15 14 14 14 14 13 13 13 12 12 11 11 10 9 8 7 7 7 7 8 7
33 32 32 32 31 30 29 26 21 16 15 15 15 15 16 17 17 17 16 16 16 15 15 14 13 13 14 15 14 13 12 11 11 10 9 8 7 7 7 7 7 6
33 32 31 32 31 30 29 24 19 16 16 15 15 16 17 17 18 18 17 16 16 15 15 14 12 14 18 19 16 14 12 11 11 10 8 7 7 7 7 6 6 5
33 32 31 30 30 29 26 21 18 17 16 16 17 17 17 18 18 18 17 17 16 15 15 13 12 16 20 19 18 16 13 11 10 9 8 7 6 6 6 6 5 5
31 30 28 27 27 25 22 19 18 18 17 17 18 18 18 19 18 18 18 17 16 15 14 13 14 18 19 17 17 17 15 11 9 8 7 6 6 6 5 5 4 4
28 26 24 23 23 22 21 20 19 18 18 18 19 19 20 19 19 18 17 16 16 16 14 13 16 20 18 16 15 15 14 11 8 7 6 6 5 5 5 4 4 3
24 24 23 23 22 22 22 21 19 19 18 18 18 20 21 21 22 21 20 19 18 17 14 13 16 20 19 17 16 14 12 10 7 7 6 5 5 5 4 4 3 3
23 23 23 23 23 23 21 20 19 19 19 20 22 24 25 26 26 26 26 24 20 18 15 13 15 20 20 18 17 15 12 9 7 7 6 5 5 4 4 3 3 3
24 24 24 24 24 23 21 20 20 21 23 24 25 25 26 26 26 25 25 23 19 18 16 14 16 20 20 18 18 16 14 10 7 7 7 5 5 5 4 3 3 3
26 27 26 25 24 22 20 21 22 23 24 24 23 22 22 21 21 20 19 20 19 18 17 14 16 20 21 19 18 17 15 11 8 8 7 6 6 6 5 4 4 4
30 31 29 25 22 20 22 23 23 23 23 22 20 20 19 17 18 18 17 18 19 18 17 15 15 20 22 20 18 17 16 12 9 8 8 7 7 7 6 6 5 3
31 33 32 26 22 22 24 24 21 21 21 19 17 17 18 17 17 17 17 18 18 17 17 16 14 19 23 22 18 18 17 13 10 9 9 9 8 8 7 7 6 4
Wind_Direction
177 174 171 171 170 170 170 169 167 165 161 154 147 143 137 130 128 125 121 121 122 121 121 120 116 109 104 103 103 100 97 95 93 93 93 91 88 86 84 82 82 82
173 172 171 172 170 169 170 170 169 164 156 149 144 143 139 133 132 133 133 133 131 129 125 119 113 108 107 106 104 103 102 99 98 99 97 96 92 88 86 85 85 84
168 169 172 175 173 171 173 172 166 158 149 143 144 145 142 139 140 140 139 136 130 127 122 116 111 109 109 111 109 107 107 105 106 107 103 98 94 91 88 87 87 87
167 167 170 175 175 173 172 167 159 152 144 141 146 146 142 139 138 137 135 131 126 124 121 116 113 113 114 115 113 111 111 111 112 111 106 100 96 93 92 91 91 90
165 164 167 174 174 171 167 162 156 148 143 144 147 144 139 138 137 137 135 131 129 126 122 119 117 119 120 119 117 116 117 116 114 112 108 104 100 97 95 95 93 88
162 164 171 175 173 170 166 161 153 146 144 148 147 141 139 139 139 139 138 135 133 128 125 125 124 125 125 123 122 121 120 119 117 115 111 108 105 102 99 95 89 84
160 167 177 177 172 169 165 159 152 147 147 149 146 142 142 142 141 142 141 138 135 132 132 131 131 131 129 128 127 124 122 121 121 120 115 112 110 105 100 94 87 83
160 171 178 175 170 168 164 158 152 149 151 150 145 142 143 143 144 143 142 140 137 137 137 136 136 134 133 133 131 128 126 126 127 125 119 115 111 105 99 94 89 85
162 171 175 174 172 169 163 157 153 153 156 151 143 144 145 145 146 145 144 143 142 141 139 139 139 136 136 137 135 133 132 132 132 128 122 117 111 106 103 98 93 87
167 171 174 173 171 168 164 159 156 158 160 152 145 146 145 146 148 147 147 146 144 144 142 142 141 139 140 139 137 138 136 135 133 127 122 116 111 108 106 101 94 86
172 174 174 171 169 168 166 161 158 161 161 153 147 148 147 148 150 149 151 150 148 148 146 144 145 144 143 142 140 140 139 136 132 125 120 115 112 111 106 99 94 85
173 174 173 172 170 169 165 162 161 164 161 154 151 151 149 151 153 153 154 154 151 150 148 148 148 147 146 145 144 144 141 136 131 126 122 119 115 113 107 100 92 83
173 172 173 173 171 168 165 164 166 165 160 155 155 153 152 154 155 156 157 156 154 152 151 149 148 148 147 146 146 145 142 138 135 130 127 123 120 114 108 100 91 83
171 170 171 172 170 168 167 167 168 165 158 156 157 156 157 158 157 157 158 157 155 154 152 151 150 150 148 147 147 145 143 142 139 135 131 128 126 119 110 101 91 83
169 169 170 171 169 168 168 168 168 164 157 157 159 159 160 160 159 160 160 159 158 156 154 155 154 154 154 152 148 144 145 143 140 138 136 134 132 125 115 104 94 86
168 168 169 170 170 169 170 170 167 162 160 161 161 161 162 161 161 163 163 162 161 158 158 160 159 160 161 157 152 148 146 143 140 139 137 139 138 129 119 109 102 97
167 168 169 170 171 171 171 170 167 163 163 163 163 163 163 163 165 167 167 166 164 162 163 163 165 172 169 162 156 151 146 142 139 136 138 144 143 133 125 118 111 109
167 168 168 170 172 173 172 170 167 167 166 166 166 165 165 166 168 169 168 168 166 165 165 165 171 176 171 163 159 153 147 143 138 136 140 146 143 134 127 124 120 116
167 167 168 170 173 174 172 169 169 170 169 168 167 166 167 168 170 171 171 171 168 167 166 165 171 174 169 163 162 157 150 143 138 137 140 139 136 130 121 121 126 119
167 168 169 171 172 171 171 170 171 171 171 170 169 167 167 167 167 168 168 168 168 168 167 168 174 177 172 168 168 164 154 143 138 142 140 132 132 128 119 116 116 114
169 171 171 171 170 171 172 172 172 172 170 169 168 167 168 169 170 171 171 170 170 169 169 175 180 180 177 178 179 175 160 146 143 155 147 134 138 134 125 123 114 109
171 173 171 170 170 171 171 172 172 172 173 173 172 174 176 178 179 182 183 180 177 173 172 179 185 182 180 183 186 183 173 164 164 169 159 147 151 148 139 136 123 113
170 171 168 168 170 171 171 173 174 175 179 179 177 177 179 179 181 183 184 183 181 177 177 180 184 183 184 188 191 188 184 184 183 178 172 164 164 166 158 142 129 121
171 171 168 168 170 170 170 171 173 175 177 176 173 172 174 176 179 180 182 184 185 183 183 183 183 185 188 191 191 188 188 193 193 182 180 177 173 178 176 157 135 115
176 175 172 168 166 168 169 170 170 171 172 172 171 172 173 174 178 180 181 185 187 186 186 185 183 189 194 193 191 189 189 196 199 187 184 185 183 183 181 172 159 120
179 177 175 169 164 167 169 168 167 168 171 173 175 177 177 177 180 182 181 183 185 186 188 187 187 192 196 195 193 192 193 197 202 195 189 189 191 188 181 179 180 168